Regional Weather Roundup
Issued by NWS

Home | Current Version | Previous Version | Graphics & Text | Print | Product List | Glossary On
Versions: 1 2 3 4 5 6 7 8 9 10 11 12 13 14 15 16 17 18 19 20 21 22 23 24 25 26 27 28 29 30 31 32 33 34 35 36 37 38 39 40 41 42 43 44 45 46 47 48 49 50
349
ASUS43 KBIS 130610
RWRND

NORTH DAKOTA REGIONAL WEATHER ROUNDUP
NATIONAL WEATHER SERVICE BISMARCK ND
1200 AM CST WED DEC 13 2017

NOTE: "FAIR" INDICATES FEW OR NO CLOUDS BELOW 12,000 FEET WITH NO
SIGNIFICANT WEATHER AND/OR OBSTRUCTIONS TO VISIBILITY.


NDZ001>003-009>011-017-130700-
NORTHWEST NORTH DAKOTA

CITY           SKY/WX    TMP DP  RH WIND       PRES   REMARKS
WILLISTON      CLOUDY    42  27  55 NW24G33   29.79R
6HR MIN TEMP:  42; 6HR MAX TEMP:  48;

MINOT          CLOUDY    41  31  67 NW26G33   29.62R
MINOT AFB      CLOUDY    40  30  69 NW25      29.60R
$$

NDZ018>021-031>035-040>046-130700-
SOUTHWEST NORTH DAKOTA

CITY           SKY/WX    TMP DP  RH WIND       PRES   REMARKS
BISMARCK       CLOUDY    46  30  53 NW26G43   29.62R
6HR MIN TEMP:  45; 6HR MAX TEMP:  49;

DICKINSON      CLOUDY    44  26  49 NW26G37   29.75R
GARRISON         N/A     41  30  65 NW26G38   29.63R
6HR MIN TEMP:  38; 6HR MAX TEMP:  48;

HETTINGER ARPT CLOUDY    47  23  38 NW31G45   29.80R
$$

NDZ004>008-012>016-024-026-027-054-130700-
NORTHEAST NORTH DAKOTA

CITY           SKY/WX    TMP DP  RH WIND       PRES   REMARKS
GRAND FORKS    LGT RAIN  37  31  78 NW14      29.40F
GRND FRKS AFB  LGT RAIN  38  31  75 N15G21    29.41R
DEVILS LAKE    CLOUDY    38  29  70 NW17      29.48R
$$

NDZ022-023-025-028>030-036>039-047>053-130700-
SOUTHEAST NORTH DAKOTA

CITY           SKY/WX    TMP DP  RH WIND       PRES   REMARKS
FARGO          CLOUDY    31  27  85 S7        29.40F
6HR MIN TEMP:  31; 6HR MAX TEMP:  36;

JAMESTOWN      CLOUDY    42  26  53 NW24G30   29.45R
$$





USA.gov is the U.S. government's official web portal to all federal, state and local government web resources and services.